Weather in Podolsk

Russia / Orenburg Oblast     52°49′57″N   53°35′30″E
temp.,
°C
wind,
m/s
gust,
m/s
humid.,
%
clouds,
%
prec.,
mm/h
press.,
hPa
HPBL,
m
3 august, tue
tue323:00+24ese33395 0.0 101429
02:00+23se23435 0.0 101423
05:00+22se234431 0.0 101430
08:00+26ese253837 0.0 1014153
11:00+34s46225 0.0 10121154
14:00+38wsw581561 0.0 10114339
17:00+37w77167 0.0 10103683
20:00+33wnw48232 0.0 1010231
4 august, wed
wed423:00+26n11313 0.0 101111
02:00+26sw113162 0.0 101111
05:00+25sse11325 0.0 101111
08:00+28s25305 0.0 1011133
11:00+36ssw46176 0.0 1011898
14:00+40sw66980 0.0 10094831
17:00+39wsw67990 0.0 10084729
20:00+35ssw361588 0.0 1008127
5 august, thu
thu523:00+28nw41032100 0.0 1009219
02:00+23nnw51165100 0.0 1010282
05:00+20nw4878100 0.0 1011205
08:00+21n5865100 0.0 1012302
11:00+26nw4444100 0.0 1012895
14:00+28nnw3337100 0.0 10111407
17:00+28n5532100 0.0 10111972
20:00+27n473447 0.0 1011528
6 august, fri
fri623:00+25n71234100 0.0 1012605
02:00+21n511485 0.0 1014374
05:00+17n34622 0.0 101451
08:00+19nne58605 0.0 1016386
11:00+24nne56405 0.0 10161530
14:00+27nne562724 0.0 10152239
17:00+28n552397 0.0 10152398
20:00+25nne23295 0.0 101553
7 august, sat
sat723:00+19nne22385 0.0 101616
02:00+16nne334070 0.0 101743
05:00+14ne224750 0.0 101819
08:00+18ne35395 0.0 1018201
11:00+24ne33265 0.0 10181089
14:00+28ne45235 0.0 10171543
17:00+29ne55245 0.0 10171779
20:00+27ene3529100 0.0 1017150